Iron Mountain, MI

6:13 PM CDT on October 23, 2017 (GMT -0500)
Ford

Weather History for KIMT - June, 2013

Change the Weather History Date:

Wednesday, June 12, 2013

  Actual Average Record
Temperature  
Mean Temperature 65 °F -  
Max Temperature 82 °F 73 °F 96 °F (1956)
Min Temperature 48 °F 50 °F 31 °F (1947)
Growing Degree Days 15 (Base 50)    
Moisture  
Dew Point 51 °F    
Average Humidity 73    
Maximum Humidity 94    
Minimum Humidity 29    
Precipitation  
Precipitation 0.00 in - - ()
Sea Level Pressure  
Sea Level Pressure 29.86 in    
Wind  
Wind Speed 2 mph (WSW)    
Max Wind Speed 12 mph    
Max Gust Speed -    
Visibility 8 miles    
Events Fog    
Averages and records for this station are not official NWS values.
T = Trace of Precipitation, MM = Missing Value Source: NWS Daily Summary

Daily Weather History Graph

Daily Weather History Graph

Search for Another Location

Airport or City:

Trip Planner

Search our weather history database for the weather conditions in past years. The results will help you decide how hot, cold, wet, or windy it might be!

Date:

Astronomy

Jun. 12, 2013 Rise Set
Actual Time 5:01 AM CDT 8:43 PM CDT
Civil Twilight 4:23 AM CDT 9:21 PM CDT
Nautical Twilight 3:32 AM CDT 10:12 PM CDT
Astronomical Twilight 2:23 AM CDT 11:22 PM CDT
Moon 8:50 AM CDT (6/12) 11:07 PM CDT (6/12)
Length of Visible Light 16h 57m
Length of Day
15h 41m
Waxing Crescent, 14% of the Moon is Illuminated
Jun 12
Waxing Crescent
Jun 16
First Quarter
Jun 23
Full
Jun 29
Last Quarter
Jul 8
New

Hourly Weather History & Observations

Time (CDT) Temp. Dew Point Humidity Pressure Visibility Wind Dir Wind Speed Gust Speed Precip Events Conditions
12:54 AM 55.9 °F 54.0 °F 93% 29.88 in 2.5 mi Calm Calm - N/A   Clear
1:10 AM 57.2 °F 55.4 °F 94% 29.89 in 6.0 mi Calm Calm - N/A   Clear
1:23 AM 53.6 °F 51.8 °F 94% 29.89 in 1.8 mi Calm Calm - N/A   Clear
1:45 AM 51.8 °F 50.0 °F 94% 29.90 in 8.0 mi Calm Calm - N/A   Clear
1:54 AM 54.0 °F 51.1 °F 90% 29.89 in 9.0 mi Calm Calm - N/A   Clear
2:54 AM 52.0 °F 50.0 °F 93% 29.89 in 10.0 mi Calm Calm - N/A   Clear
3:21 AM 50.0 °F 48.2 °F 94% 29.89 in 1.2 mi Calm Calm - N/A   Clear
3:29 AM 50.0 °F 48.2 °F 94% 29.90 in 0.5 mi Calm Calm - N/A Fog Fog
3:35 AM 50.0 °F 48.2 °F 94% 29.89 in 3.0 mi Calm Calm - N/A   Clear
3:50 AM 48.2 °F 46.4 °F 93% 29.90 in 2.0 mi Calm Calm - N/A   Clear
3:54 AM 48.9 °F 46.9 °F 93% 29.90 in 4.0 mi Calm Calm - N/A   Clear
4:21 AM 48.2 °F 46.4 °F 93% 29.89 in 1.5 mi Calm Calm - N/A   Clear
4:33 AM 48.2 °F 46.4 °F 93% 29.89 in 3.0 mi North 3.5 mph - N/A   Clear
4:54 AM 50.0 °F 48.0 °F 93% 29.89 in 10.0 mi NNW 4.6 mph - N/A   Clear
5:54 AM 52.0 °F 50.0 °F 93% 29.91 in 10.0 mi Calm Calm - N/A   Clear
6:54 AM 55.9 °F 52.0 °F 87% 29.90 in 10.0 mi Calm Calm - N/A   Clear
7:54 AM 62.1 °F 55.0 °F 78% 29.90 in 10.0 mi Calm Calm - N/A   Clear
8:54 AM 69.1 °F 57.0 °F 65% 29.89 in 10.0 mi Calm Calm - N/A   Clear
9:54 AM 73.0 °F 51.1 °F 46% 29.87 in 10.0 mi South 4.6 mph - N/A   Clear
10:54 AM 77.0 °F 46.9 °F 34% 29.86 in 10.0 mi SSW 4.6 mph - N/A   Partly Cloudy
11:54 AM 78.1 °F 48.0 °F 35% 29.85 in 10.0 mi Variable 3.5 mph - N/A   Clear
12:54 PM 79.0 °F 46.0 °F 31% 29.83 in 10.0 mi Variable 4.6 mph - N/A   Clear
1:54 PM 82.0 °F 48.0 °F 30% 29.82 in 10.0 mi SW 6.9 mph - N/A   Clear
2:54 PM 82.9 °F 48.0 °F 29% 29.81 in 10.0 mi SW 6.9 mph - N/A   Clear
3:54 PM 82.0 °F 48.0 °F 30% 29.80 in 10.0 mi NNE 6.9 mph - N/A   Mostly Cloudy
4:54 PM 78.1 °F 52.0 °F 40% 29.78 in 10.0 mi South 11.5 mph - N/A   Overcast
5:54 PM 73.0 °F 54.0 °F 51% 29.80 in 10.0 mi South 10.4 mph - N/A   Overcast
6:54 PM 70.0 °F 53.1 °F 55% 29.81 in 10.0 mi South 6.9 mph - N/A   Overcast
7:54 PM 69.1 °F 53.1 °F 57% 29.80 in 10.0 mi SE 3.5 mph - N/A   Partly Cloudy
8:54 PM 63.0 °F 54.0 °F 72% 29.82 in 10.0 mi Calm Calm - N/A   Clear
9:54 PM 62.1 °F 55.0 °F 78% 29.83 in 10.0 mi North 3.5 mph - N/A   Overcast
10:54 PM 59.0 °F 55.0 °F 87% 29.81 in 10.0 mi NW 4.6 mph - N/A   Clear
11:54 PM 55.9 °F 54.0 °F 93% 29.82 in 10.0 mi NW 4.6 mph - N/A   Clear